Location: Aulnoy
(48.8410°N, 3.0967°E)
Time: 13:20:20
(UTC+00:00)

SKYMED 2 - Pass Details

Date: 09 February 2023
Orbit: 621 x 623 km, 97.9° (Epoch: 22 March)

Event Time Altitude Azimuth Distance (km) Brightness Sun altitude
Rises 18:05:59 0° 13° (NNE) 2,919 6.8 -11.6°
Reaches altitude 10° 18:08:11 10° 13° (NNE) 2,007 6.0 -12.0°
Maximum altitude 18:12:33 85° 286° (WNW) 632 3.6 -12.7°
Drops below altitude 10° 18:16:54 10° 197° (SSW) 1,989 6.5 -13.4°
Sets 18:19:04 0° 197° (SSW) 2,890 7.3 -13.7°
